Other Surface Observations
Issued by NWS

Current Version | Previous Version | Text Only | Print | Product List | Glossary On
Versions: 1 2 3 4 5 6 7 8 9 10 11 12 13 14 15 16 17 18 19 20 21 22 23 24 25 26 27 28 29 30 31 32 33 34 35 36 37 38 39 40 41 42 43 44 45 46 47 48 49 50
000
SXUS52 KTAE 081616
OSOTAE
OSOTAE
North Florida/South Alabama/Southwest Georgia Weather Roundup
National Weather Service Tallahassee Florida
1200 PM EDT WED APR 08 2020

Note: "fair" indicates few or no clouds below 12,000 feet with no
significant weather and/or obstructions to visibility.

!FLZ017-115-028-034-025-081700
...North Florida...

CITY           SKY/WX    TMP DP  RH WIND       PRES   REMARKS
TALL INTL ARPT PTSUNNY   82  70  66 NW12      29.95F
FSU LOVE BLDG    N/A     81  70  69 W13G21      N/A
APALACHICOLA     N/A    N/A N/A N/A MISG      29.98R
PERRY          CLOUDY    81  73  77 W10       29.98S
CROSS CITY     CLOUDY    80  71  73 W12G22    29.98F
JACKSONVILLE   PTSUNNY   80  69  69 W14       29.94F
$$

!FLZ112-006-005-002-011-081700
...Florida Panhandle...

CITY           SKY/WX    TMP DP  RH WIND       PRES   REMARKS
MARIANNA       CLOUDY    82  69  64 W13G24    29.94F
BONIFAY        FAIR      83  72  69 VRB3      29.95F
PANAMA CITY NW CLOUDY    82  71  69 W13       29.96S
TYNDALL AFB    PTSUNNY   81  73  78 W12G18    29.97
TYND DRONE APT FAIR      80  74  81 W9        29.98S
DE FUNIAK SPR  CLOUDY    80  69  70 W9G16     29.97S
EGLIN AFB      PTSUNNY   80  72  75 SW10      29.96
DESTIN         CLOUDY    77  73  87 SW8       29.97S
HURLBURT       NOT AVBL
CRESTVIEW      CLOUDY    81  70  69 W9        29.97S
PENSACOLA      PTSUNNY   84  71  65 W13       29.96S
$$

!ALZ063-066-081700
...South Alabama...

CITY           SKY/WX    TMP DP  RH WIND       PRES   REMARKS
DOTHAN         CLOUDY    79  70  74 W12       29.99S
OZARK CAIRNS   PTSUNNY   78  71  79 W10       29.95
FT RUCKER HELI CLOUDY    77  72  83 W9        29.95S
RUCKER HELI 3  PTSUNNY   77  70  78 W10       29.94
RUCKER HELI 2  CLOUDY    77  70  78 W5        29.94
FLORALA APT    PTSUNNY   80  70  71 VRB5      29.97F
ANDALUSIA      PTSUNNY   84  70  62 SW9G18    29.95F
TROY           CLOUDY    76  70  82 W7        29.96S
EUFALA         NOT AVBL
MOBILE         PTSUNNY   81  72  74 SW9       29.97R
$$

!GAZ120>161-081700
...Southwest and South Central Georgia...

CITY           SKY/WX    TMP DP  RH WIND       PRES   REMARKS
THOMASVILLE    CLOUDY    79  70  73 W6        29.96F
BAINBRIDGE     CLOUDY    82  70  65 W14       29.95S
MOODY AFB      CLOUDY    76  70  81 W7        29.94
VALDOSTA       PTSUNNY   78  70  76 VRB5      29.95F
MOULTRIE       PTSUNNY   79  70  73 W9        29.95F
BLAKELY        CLOUDY    73  66  78 W9        29.95S
ALBANY         PTSUNNY   80  70  71 W12G17    29.95F
TIFTON         CLOUDY    76  70  80 W10G16    29.94
FITZGERALD     CLOUDY    77  71  81 W7        29.96F
CORDELE        CLOUDY    76  69  80 W7        29.94F
AMERICUS       CLOUDY    79  70  73 N10       29.95F
HOMERVILLE     CLOUDY    77  68  73 W9        29.95F
$$

!GMZ750-755-770-775-081700
...Coastal and Buoy Obs...

STATION/POSITION TIME  TEMP    WIND        PRES    VSBY  WAVE
                       AIR SEA DIR/SP/G                  HT/PER
                 (UTC) (F)     (DEG/KT/KT) (MB)    (MI)  (FT/S)
KEATON BEACH     1600   73     240/ 11/ 12 1015.5F
CEDAR KEY        1600   76     280/ 11/ 14 1016.1F
C TOWER          1600   72     250/ 12/ 12 1015.9S
APALACHICOLA BUO 1600          260/  6/  8 1017.0
PANAMA CITY BUOY 1600          230/  8/ 10 1016.0
MOBILE BUOY      1600   75 74  190/  6/  8 1016.0
ORANGE BCH AL BU 1600   74     210/ 10/ 12 1015.2
$$




USA.gov is the U.S. government's official web portal to all federal, state and local government web resources and services.